Atlantic, IA

2:46 PM CDT on April 23, 2018 (GMT -0500)
Atlantic Municipal

Weather History for KAIO - January, 2014

Change the Weather History Date:

Monday, January 13, 2014

  Actual Average Record
Temperature  
Mean Temperature 36 °F -  
Max Temperature 42 °F 29 °F 42 °F (2014)
Min Temperature 30 °F 12 °F -9 °F (2015)
Degree Days  
Heating Degree Days 29    
Moisture  
Dew Point 26 °F    
Average Humidity 71    
Maximum Humidity 87    
Minimum Humidity 42    
Precipitation  
Precipitation 0.00 in - - ()
Sea Level Pressure  
Sea Level Pressure 29.73 in    
Wind  
Wind Speed 10 mph (West)    
Max Wind Speed 22 mph    
Max Gust Speed 29 mph    
Visibility 10 miles    
Events      
Averages and records for this station are not official NWS values.
T = Trace of Precipitation, MM = Missing Value Source: NWS Daily Summary

Daily Weather History Graph

Daily Weather History Graph

Search for Another Location

Airport or City:

Astronomy

Jan. 13, 2014 Rise Set
Actual Time 7:44 AM CST 5:13 PM CST
Civil Twilight 7:14 AM CST 5:44 PM CST
Nautical Twilight 6:39 AM CST 6:18 PM CST
Astronomical Twilight 6:06 AM CST 6:51 PM CST
Moon 3:29 PM CST (1/13) 5:34 AM CST (1/13)
Length of Visible Light 10h 29m
Length of Day
9h 28m
Waxing Gibbous, 95% of the Moon is Illuminated
Jan 13
Waxing Gibbous
Jan 15
Full
Jan 23
Last Quarter
Jan 30
New
Feb 6
First Quarter

Hourly Weather History & Observations

Time (CST) Temp. Windchill Dew Point Humidity Pressure Visibility Wind Dir Wind Speed Gust Speed Precip Events Conditions
12:15 AM 42.8 °F 38.6 °F 33.8 °F 70% 29.65 in 10.0 mi West 6.9 mph - N/A   Overcast
12:35 AM 41.0 °F 35.2 °F 33.8 °F 76% 29.64 in 10.0 mi West 9.2 mph - N/A   Overcast
12:55 AM 41.0 °F - 33.8 °F 76% 29.63 in 10.0 mi Calm Calm - N/A   Overcast
1:15 AM 39.2 °F - 32.0 °F 75% 29.62 in 10.0 mi Calm Calm - N/A   Overcast
1:35 AM 39.2 °F 35.9 °F 32.0 °F 75% 29.63 in 10.0 mi South 4.6 mph - N/A   Overcast
1:55 AM 39.2 °F 33.6 °F 32.0 °F 75% 29.65 in 10.0 mi West 8.1 mph - N/A   Overcast
2:15 AM 41.0 °F 36.4 °F 32.0 °F 70% 29.64 in 10.0 mi WNW 6.9 mph - N/A   Overcast
2:35 AM 39.2 °F 32.5 °F 30.2 °F 70% 29.64 in 10.0 mi WNW 10.4 mph - N/A   Overcast
2:55 AM 39.2 °F 32.5 °F 30.2 °F 70% 29.65 in 10.0 mi WNW 10.4 mph - N/A   Overcast
3:15 AM 39.2 °F 32.5 °F 30.2 °F 70% 29.66 in 10.0 mi WNW 10.4 mph - N/A   Overcast
3:35 AM 39.2 °F 32.5 °F 30.2 °F 70% 29.66 in 10.0 mi WNW 10.4 mph - N/A   Overcast
3:55 AM 37.4 °F 29.3 °F 30.2 °F 75% 29.67 in 10.0 mi WNW 12.7 mph - N/A   Overcast
4:15 AM 37.4 °F 28.2 °F 30.2 °F 75% 29.67 in 10.0 mi NW 16.1 mph 21.9 mph N/A   Overcast
4:35 AM 37.4 °F 28.2 °F 28.4 °F 70% 29.68 in 10.0 mi NW 16.1 mph - N/A   Scattered Clouds
4:55 AM 37.4 °F 27.8 °F 28.4 °F 70% 29.69 in 10.0 mi NW 17.3 mph - N/A   Partly Cloudy
5:15 AM 35.6 °F 25.9 °F 28.4 °F 75% 29.71 in 10.0 mi NW 16.1 mph - N/A   Partly Cloudy
5:35 AM 35.6 °F 25.9 °F 28.4 °F 75% 29.71 in 10.0 mi NW 16.1 mph - N/A   Clear
5:55 AM 35.6 °F 25.9 °F 28.4 °F 75% 29.72 in 10.0 mi NW 16.1 mph - N/A   Clear
6:15 AM 33.8 °F 24.8 °F 28.4 °F 81% 29.73 in 10.0 mi NW 12.7 mph - N/A   Clear
6:35 AM 32.0 °F 24.2 °F 28.4 °F 87% 29.74 in 10.0 mi NW 9.2 mph - N/A   Scattered Clouds
6:55 AM 32.0 °F 22.5 °F 28.4 °F 87% 29.75 in 10.0 mi NW 12.7 mph - N/A   Scattered Clouds
7:15 AM 32.0 °F 22.5 °F 28.4 °F 87% 29.75 in 10.0 mi NW 12.7 mph - N/A   Partly Cloudy
7:35 AM 32.0 °F 24.2 °F 28.4 °F 87% 29.75 in 10.0 mi NW 9.2 mph - N/A   Clear
7:55 AM 32.0 °F 22.5 °F 28.4 °F 87% 29.76 in 10.0 mi NW 12.7 mph - N/A   Partly Cloudy
8:15 AM 32.0 °F 21.6 °F 26.6 °F 80% 29.77 in 10.0 mi NW 15.0 mph 21.9 mph N/A   Scattered Clouds
8:35 AM 30.2 °F 17.1 °F 24.8 °F 80% 29.78 in 10.0 mi NW 21.9 mph 28.8 mph N/A   Mostly Cloudy
8:55 AM 30.2 °F 18.1 °F 26.6 °F 86% 29.80 in 10.0 mi NW 18.4 mph 25.3 mph N/A   Mostly Cloudy
9:15 AM 32.0 °F 21.6 °F 26.6 °F 80% 29.81 in 10.0 mi NW 15.0 mph 23.0 mph N/A   Overcast
9:35 AM 30.2 °F 19.8 °F 24.8 °F 80% 29.82 in 10.0 mi NNW 13.8 mph 23.0 mph N/A   Overcast
9:55 AM 32.0 °F 20.5 °F 26.6 °F 80% 29.82 in 10.0 mi NNW 18.4 mph - N/A   Scattered Clouds
10:15 AM 32.0 °F 22.5 °F 24.8 °F 75% 29.83 in 10.0 mi NNW 12.7 mph 21.9 mph N/A   Partly Cloudy
10:35 AM 33.8 °F 23.5 °F 24.8 °F 70% 29.83 in 10.0 mi NW 16.1 mph - N/A   Clear
10:55 AM 33.8 °F 24.8 °F 24.8 °F 70% 29.83 in 10.0 mi NNW 12.7 mph - N/A   Clear
11:15 AM 35.6 °F 26.6 °F 23.0 °F 60% 29.83 in 10.0 mi NW 13.8 mph - N/A   Clear
11:35 AM 35.6 °F 27.1 °F 23.0 °F 60% 29.81 in 10.0 mi NW 12.7 mph - N/A   Clear
11:55 AM 37.4 °F 30.3 °F 23.0 °F 56% 29.80 in 10.0 mi NW 10.4 mph - N/A   Clear
12:15 PM 39.2 °F 32.0 °F 23.0 °F 52% 29.80 in 10.0 mi NW 11.5 mph - N/A   Clear
12:35 PM 39.2 °F 32.0 °F 23.0 °F 52% 29.79 in 10.0 mi West 11.5 mph - N/A   Clear
12:55 PM 39.2 °F 32.0 °F 23.0 °F 52% 29.79 in 10.0 mi WNW 11.5 mph - N/A   Clear
1:15 PM 39.2 °F 32.0 °F 23.0 °F 52% 29.78 in 10.0 mi West 11.5 mph - N/A   Clear
1:35 PM 41.0 °F 35.2 °F 21.2 °F 45% 29.78 in 10.0 mi West 9.2 mph - N/A   Clear
1:55 PM 41.0 °F 33.5 °F 21.2 °F 45% 29.77 in 10.0 mi West 13.8 mph - N/A   Clear
2:15 PM 41.0 °F 34.7 °F 21.2 °F 45% 29.77 in 10.0 mi West 10.4 mph 16.1 mph N/A   Clear
2:35 PM 41.0 °F 33.9 °F 21.2 °F 45% 29.77 in 10.0 mi West 12.7 mph - N/A   Clear
2:55 PM 41.0 °F 34.3 °F 21.2 °F 45% 29.77 in 10.0 mi WSW 11.5 mph - N/A   Clear
3:15 PM 41.0 °F 33.9 °F 23.0 °F 49% 29.77 in 10.0 mi SW 12.7 mph - N/A   Clear
3:35 PM 42.8 °F 37.0 °F 21.2 °F 42% 29.77 in 10.0 mi WSW 10.4 mph 16.1 mph N/A   Clear
3:55 PM 41.0 °F 34.3 °F 21.2 °F 45% 29.77 in 10.0 mi SW 11.5 mph - N/A   Clear
4:15 PM 37.4 °F 30.8 °F 21.2 °F 52% 29.77 in 10.0 mi SW 9.2 mph - N/A   Clear
4:35 PM 35.6 °F 29.9 °F 23.0 °F 60% 29.77 in 10.0 mi SSW 6.9 mph - N/A   Clear
4:55 PM 33.8 °F 28.6 °F 23.0 °F 65% 29.76 in 10.0 mi South 5.8 mph - N/A   Clear
5:15 PM 33.8 °F 29.6 °F 23.0 °F 65% 29.76 in 10.0 mi South 4.6 mph - N/A   Partly Cloudy
5:35 PM 32.0 °F 25.6 °F 23.0 °F 69% 29.76 in 10.0 mi SSW 6.9 mph - N/A   Partly Cloudy
5:55 PM 33.8 °F 27.7 °F 24.8 °F 70% 29.75 in 10.0 mi SSW 6.9 mph - N/A   Mostly Cloudy
6:15 PM 32.0 °F 25.6 °F 24.8 °F 75% 29.74 in 10.0 mi South 6.9 mph - N/A   Overcast
6:35 PM 32.0 °F 25.6 °F 24.8 °F 75% 29.74 in 10.0 mi SSW 6.9 mph - N/A   Mostly Cloudy
6:55 PM 32.0 °F 25.6 °F 24.8 °F 75% 29.73 in 10.0 mi South 6.9 mph - N/A   Partly Cloudy
7:15 PM 33.8 °F 25.3 °F 24.8 °F 70% 29.72 in 10.0 mi South 11.5 mph - N/A   Clear
7:35 PM 32.0 °F 24.8 °F 26.6 °F 80% 29.72 in 10.0 mi SSW 8.1 mph - N/A   Clear
7:55 PM 32.0 °F 24.2 °F 26.6 °F 80% 29.71 in 4.0 mi South 9.2 mph - N/A   Haze
8:15 PM 32.0 °F 24.8 °F 26.6 °F 80% 29.70 in 10.0 mi SSW 8.1 mph - N/A   Clear
8:35 PM 32.0 °F 24.8 °F 26.6 °F 80% 29.70 in 10.0 mi SSW 8.1 mph - N/A   Clear
8:55 PM 30.2 °F 23.4 °F 24.8 °F 80% 29.69 in 10.0 mi SSW 6.9 mph - N/A   Clear
9:15 PM 32.0 °F 24.2 °F 26.6 °F 80% 29.69 in 10.0 mi SSW 9.2 mph - N/A   Clear
9:35 PM 33.8 °F 25.8 °F 28.4 °F 81% 29.68 in 10.0 mi SSW 10.4 mph - N/A   Clear
9:55 PM 33.8 °F 25.8 °F 28.4 °F 81% 29.68 in 10.0 mi SSW 10.4 mph - N/A   Clear
10:15 PM 33.8 °F 25.8 °F 28.4 °F 81% 29.67 in 10.0 mi SSW 10.4 mph - N/A   Clear
10:35 PM 32.0 °F 24.8 °F 28.4 °F 87% 29.67 in 10.0 mi SSW 8.1 mph - N/A   Clear
10:55 PM 32.0 °F 24.8 °F 28.4 °F 87% 29.66 in 10.0 mi SSW 8.1 mph - N/A   Clear
11:15 PM 32.0 °F 26.4 °F 26.6 °F 80% 29.66 in 10.0 mi SSW 5.8 mph - N/A   Clear
11:35 PM 32.0 °F 23.6 °F 28.4 °F 87% 29.66 in 10.0 mi SSW 10.4 mph - N/A   Clear
11:55 PM 33.8 °F 27.0 °F 28.4 °F 81% 29.65 in 10.0 mi SW 8.1 mph - N/A   Scattered Clouds